Tracking 35275 objects as of 9-Sep-2026
HD Live streaming from Space Station
objects crossing your sky now

SL-16 R/B

Track SL-16 R/B now!
10-day predictions
SL-16 R/B is classified as:


NORAD ID: 23705
Int'l Code: 1995-058B
Launch date: October 31, 1995
Source: Commonwealth of Independent States (former USSR) (CIS)
Launch site: TYURATAM MISSILE AND SPACE COMPLEX (TTMTR)

Note: This is a ROCKET BODY
Your satellite tracking list
Your tracking list is empty




NASA's NSSDC Master Catalog

Two Line Element Set (TLE):
1 23705U 95058B   26252.15548837 -.00000251  00000-0 -10379-3 0  9995
2 23705  71.0216 155.0655 0013513 209.1822 150.8547 14.15515166593811
Source of the keplerian elements: AFSPC